Weather History for KAAF - September, 2013

Change the Weather History Date:

Wednesday, September 18, 2013

  Actual Average Record
Temperature  
Mean Temperature 82 °F 79 °F  
Max Temperature 88 °F 88 °F 96 °F (1998)
Min Temperature 75 °F 70 °F 59 °F (1981)
Degree Days  
Heating Degree Days 0    
Month to date heating degree days 0  
Since 1 July heating degree days 0  
Cooling Degree Days 17    
Month to date cooling degree days 311  
Year to date cooling degree days 2231  
Growing Degree Days 32 (Base 50)    
Moisture  
Dew Point 72 °F    
Average Humidity 73    
Maximum Humidity 87    
Minimum Humidity 59    
Precipitation  
Precipitation T in 0.22 in 7.53 in (1966)
Month to date precipitation 0.65 4.28  
Year to date precipitation 44.03 44.22  
Sea Level Pressure  
Sea Level Pressure 30.05 in    
Wind  
Wind Speed 10 mph (ENE)    
Max Wind Speed 20 mph    
Max Gust Speed 26 mph    
Visibility 10 miles    
Events      
T = Trace of Precipitation, MM = Missing Value Source: NWS Daily Summary

Daily Weather History Graph

Daily Weather History Graph

Search for Another Location

Airport or City:

Trip Planner

Search our weather history database for the weather conditions in past years. The results will help you decide how hot, cold, wet, or windy it might be!

Date:

Astronomy

Sep. 18, 2013 Rise Set
Actual Time 7:26 AM EDT 7:41 PM EDT
Civil Twilight 7:02 AM EDT 8:05 PM EDT
Nautical Twilight 6:34 AM EDT 8:32 PM EDT
Astronomical Twilight 6:06 AM EDT 9:01 PM EDT
Moon 7:05 PM EDT (9/18) 6:29 AM EDT (9/18)
Length of Visible Light 13h 02m
Length of Day
12h 14m
Waxing Gibbous, 99% of the Moon is Illuminated
Sep 18
Waxing Gibbous
Sep 19
Full
Sep 26
Last Quarter
Oct 4
New
Oct 11
First Quarter

Hourly Weather History & Observations

Time (EDT) Temp. Heat Index Dew Point Humidity Pressure Visibility Wind Dir Wind Speed Gust Speed Precip Events Conditions
12:53 AM 80.1 °F 84.2 °F 73.0 °F 79% 30.04 in 10.0 mi ENE 10.4 mph - N/A   Clear
1:22 AM 80.6 °F 85.4 °F 73.4 °F 79% 30.05 in 10.0 mi ENE 11.5 mph 23.0 mph N/A   Mostly Cloudy
1:53 AM 80.1 °F 84.2 °F 73.0 °F 79% 30.04 in 10.0 mi East 12.7 mph 17.3 mph N/A   Scattered Clouds
2:53 AM 80.1 °F 84.2 °F 73.0 °F 79% 30.04 in 10.0 mi ENE 10.4 mph - N/A   Mostly Cloudy
3:53 AM 77.0 °F - 72.0 °F 84% 30.04 in 10.0 mi NE 6.9 mph - N/A   Mostly Cloudy
4:53 AM 75.9 °F - 71.1 °F 85% 30.03 in 10.0 mi NE 8.1 mph - N/A   Overcast
5:53 AM 75.0 °F - 71.1 °F 87% 30.02 in 10.0 mi NE 9.2 mph - 0.00 in   Mostly Cloudy
6:53 AM 75.0 °F - 70.0 °F 84% 30.03 in 10.0 mi NE 9.2 mph - N/A   Mostly Cloudy
7:04 AM 75.2 °F - 71.6 °F 89% 30.03 in 10.0 mi NE 6.9 mph - N/A   Mostly Cloudy
7:53 AM 75.0 °F - 71.1 °F 87% 30.05 in 10.0 mi NE 8.1 mph - N/A   Overcast
8:12 AM 75.2 °F - 71.6 °F 89% 30.05 in 10.0 mi NE 9.2 mph - N/A   Mostly Cloudy
8:53 AM 77.0 °F - 71.1 °F 82% 30.06 in 10.0 mi NE 9.2 mph - N/A   Partly Cloudy
9:53 AM 81.0 °F 85.2 °F 72.0 °F 74% 30.07 in 10.0 mi ENE 13.8 mph - N/A   Clear
10:53 AM 84.0 °F 90.2 °F 73.0 °F 69% 30.09 in 10.0 mi ENE 9.2 mph - N/A   Mostly Cloudy
11:01 AM 82.4 °F 87.2 °F 71.6 °F 70% 30.08 in 10.0 mi ENE 11.5 mph 17.3 mph N/A   Scattered Clouds
11:09 AM 84.2 °F 89.6 °F 71.6 °F 66% 30.08 in 10.0 mi East 11.5 mph 18.4 mph N/A   Mostly Cloudy
11:33 AM 84.2 °F 89.6 °F 71.6 °F 66% 30.08 in 10.0 mi East 10.4 mph - N/A   Scattered Clouds
11:53 AM 84.0 °F 89.6 °F 72.0 °F 67% 30.09 in 10.0 mi East 10.4 mph 19.6 mph N/A   Clear
12:53 PM 84.9 °F 91.4 °F 73.0 °F 67% 30.07 in 10.0 mi East 12.7 mph - N/A   Clear
1:53 PM 86.0 °F 92.2 °F 72.0 °F 63% 30.05 in 10.0 mi East 11.5 mph 21.9 mph N/A   Clear
2:53 PM 88.0 °F 94.7 °F 72.0 °F 59% 30.04 in 10.0 mi East 13.8 mph 21.9 mph N/A   Clear
3:53 PM 87.1 °F 93.6 °F 72.0 °F 61% 30.02 in 10.0 mi East 10.4 mph 21.9 mph N/A   Partly Cloudy
4:53 PM 86.0 °F 92.2 °F 72.0 °F 63% 30.01 in 10.0 mi East 11.5 mph 23.0 mph N/A   Clear
5:53 PM 84.9 °F 90.7 °F 72.0 °F 65% 30.01 in 10.0 mi East 8.1 mph 18.4 mph N/A   Partly Cloudy
6:53 PM 84.0 °F 89.6 °F 72.0 °F 67% 30.02 in 10.0 mi East 10.4 mph - N/A   Partly Cloudy
7:53 PM 82.0 °F 86.7 °F 72.0 °F 71% 30.02 in 10.0 mi ENE 8.1 mph - N/A   Partly Cloudy
8:53 PM 82.0 °F 86.7 °F 72.0 °F 71% 30.04 in 10.0 mi ENE 6.9 mph - N/A   Mostly Cloudy
9:53 PM 80.1 °F 84.2 °F 73.0 °F 79% 30.05 in 10.0 mi NE 6.9 mph - N/A   Mostly Cloudy
10:53 PM 82.0 °F 85.9 °F 70.0 °F 67% 30.06 in 10.0 mi ENE 9.2 mph 18.4 mph N/A   Mostly Cloudy
11:53 PM 81.0 °F 84.4 °F 70.0 °F 69% 30.06 in 10.0 mi East 11.5 mph 19.6 mph N/A   Scattered Clouds